Find Starlink 5902

NORAD ID: 55998 Int'l Des: 2023-042 Owner: SPXS Country: US Constellation: starlink operational
LEOCIRCULAR

リアルタイム位置

3D地球を読み込み中...

Starlink 5902について

説明を読み込み中...

次回通過

Passes for default location (London). Set your location on the main map for personalized predictions.

高度履歴

Loading altitude history...

軌道要素

1 55998U 23042N 26122.05290240 -.00004405 00000-0 -15454-3 0 9999
2 55998 43.0056 117.9827 0001809 290.5314 69.5343 15.26758494171036
Epoch: May 2, 2026 • Age: 7 hours

現在のステータス

高度 486.3 km
速度 7.62 km/s
衛星直下点 -4.60°S, 44.49°W
打ち上げ日 Mar 24, 2023
運用期間 3.1 years
タイプ internet

技術仕様

分類 Payload
質量 305.00 kg
乾燥質量 290.00 kg
総質量 305.00 kg
長さ 0.20 m
直径 2.80 m
スパン 9.00 m
形状 Box + pan
製造者 SPXS
バスタイプ Starlink
フェーズステータス In Orbit
所有者/国 SPXS/US

Most Searched